This is the latest recevied weather packets stored in our database for station/object KB4KY. If no packets are shown the sender has not sent any weather packets the latest 10 day(s).
| Time | Temp. | Humidity | Pressure | Rain* | Wind** | Luminosity | Snow |
|---|---|---|---|---|---|---|---|
| 1777362434 | 16.11° C | 97% | 1009.9 hPa | 4.83 mm | - | - | - |
| 1777362135 | 15.56° C | 97% | 1010.1 hPa | 5.84 mm | - | - | - |
| 1777361879 | 15.56° C | 97% | 1010.4 hPa | 8.13 mm | - | - | - |
| 1777361835 | 15.56° C | 97% | 1010.4 hPa | 8.13 mm | - | - | - |
| 1777361601 | 15.56° C | 97% | 1010 hPa | 12.45 mm | - | - | - |
| 1777361533 | 15.56° C | 97% | 1010 hPa | 12.45 mm | - | - | - |
| 1777361234 | 15.56° C | 97% | 1010.5 hPa | 16.51 mm | - | - | - |
| 1777360929 | 15.56° C | 97% | 1010.4 hPa | 19.3 mm | - | - | - |
| 1777360635 | 15.56° C | 97% | 1010.6 hPa | 24.89 mm | - | - | - |
| 1777360332 | 15.56° C | 97% | 1010.3 hPa | 29.72 mm | - | - | - |
| 1777360033 | 15.56° C | 97% | 1010.9 hPa | 34.29 mm | - | - | - |
| 1777359733 | 15.56° C | 96% | 1011.7 hPa | 34.29 mm | - | - | - |
| 1777359432 | 15.56° C | 96% | 1012.1 hPa | 35.56 mm | - | - | - |
| 1777359132 | 15.56° C | 96% | 1011.9 hPa | 36.32 mm | - | - | - |
| 1777358530 | 16.11° C | 96% | 1011.5 hPa | 44.7 mm | - | - | - |
| 1777357930 | 16.11° C | 96% | 1012.3 hPa | 45.97 mm | - | - | - |
| 1777357331 | 16.11° C | 96% | 1011.9 hPa | 38.35 mm | - | - | - |
| 1777357027 | 16.11° C | 96% | 1012.6 hPa | 32.51 mm | - | - | - |
| 1777356676 | 16.11° C | 95% | 1011.2 hPa | 22.61 mm | - | - | - |
| 1777356429 | 16.11° C | 95% | 1011.2 hPa | 22.61 mm | - | - | - |
| 1777356127 | 16.67° C | 95% | 1010.8 hPa | 22.1 mm | - | - | - |
| 1777355826 | 16.67° C | 95% | 1011.9 hPa | 20.32 mm | - | - | - |
| 1777355529 | 16.67° C | 95% | 1011.9 hPa | 18.54 mm | - | - | - |
| 1777355226 | 17.22° C | 94% | 1012.5 hPa | 12.95 mm | - | - | - |
| 1777355180 | 18.33° C | 91% | 1012.7 hPa | 8.38 mm | - | - | - |
* Rain latest hour (hover to see other rain measurements)
** Current wind speed in m/s (hover to see current wind gust speed)